Regional Weather Roundup
Issued by NWS

Home | Current Version | Previous Version | Text Only | Print | Product List | Glossary On
Versions: 1 2 3 4 5 6 7 8 9 10 11 12 13 14 15 16 17 18 19 20 21 22 23 24 25 26 27 28
000
ASUS45 KTFX 240610
RWRMT
MONTANA REGIONAL WEATHER ROUNDUP
NATIONAL WEATHER SERVICE GREAT FALLS MT
1200 AM MDT SAT JUN 24 2017

NOTE: "FAIR" INDICATES FEW OR NO CLOUDS BELOW 12000 FEET WITH NO
SIGNIFICANT WEATHER AND/OR OBSTRUCTIONS TO VISIBILITY.

MTZ001>007-043-240700-
WEST OF THE DIVIDE

CITY           SKY/WX    TMP DP  RH WIND       PRES   REMARKS
KALISPELL      CLEAR     51  45  79 NW3       30.21S
MISSOULA       CLEAR     59  38  45 CALM      30.21S
BUTTE          CLEAR     53  34  48 SW3       30.32R
MULLAN PASS    CLEAR     53  29  39 NW5       30.34S
ANACONDA         N/A     52  37  58 CALM      30.30R
DEER LODGE       N/A     52  37  58 W8        30.32R
EUREKA           N/A     54  39  58 MISG      30.20S
$$

MTZ008-052>055-240700-
SOUTHWEST MONTANA

CITY           SKY/WX    TMP DP  RH WIND       PRES   REMARKS
BOZEMAN        CLEAR     51  38  60 NW9       30.29R
DILLON         CLEAR     52  35  52 E5        30.27S
W YELLOWSTONE  CLEAR     43  30  61 S9        30.34R
ENNIS          CLEAR     46  36  66 SE7       30.34R
THREE FORKS      N/A     52  38  58 CALM      30.25R
$$

MTZ009-010-012-014-046-048-049-054-240700-
EAST SLOPES AND CENTRAL MONTANA

CITY           SKY/WX    TMP DP  RH WIND       PRES   REMARKS
CUT BANK       CLOUDY    53  44  71 CALM      30.31S
GREAT FALLS    CLOUDY    57  40  52 NE7       30.31S
MALMSTROM AFB  LGT RAIN  59  39  47 N5        30.30S
HELENA         CLEAR     57  39  51 W7        30.29R
CHOTEAU          N/A     55  43  62 NW3       30.33S
CONRAD           N/A     56  48  74 CALM      30.30R
$$

MTZ011-013-016-021-045-047-050-051-240700-
NORTH CENTRAL MONTANA

CITY           SKY/WX    TMP DP  RH WIND       PRES   REMARKS
HAVRE          CLEAR     46  36  68 SW6       30.26R
LEWISTOWN      CLOUDY    45  38  76 SE6       30.31S
N BAR RANCH      N/A     45  34  65 W7        30.34S
CHINOOK          N/A     50  37  62 CALM      30.24S
FORT BENTON      N/A     59  41  51 MISG      30.30R
$$

MTZ017>020-022>027-061-062-240700-
NORTHEAST MONTANA

CITY           SKY/WX    TMP DP  RH WIND       PRES   REMARKS
GLASGOW        PTCLDY    51  30  44 N5        30.19S
JORDAN           N/A     47  29  49 W6        30.23S
SIDNEY         PTCLDY    49  34  56 NW8       30.16S
WOLF POINT     CLOUDY    56  34  43 N6        30.18S
MALTA          CLEAR     48  37  66 CALM      30.22R
PLENTYWOOD       N/A     46  36  66 CALM      30.18R
$$

MTZ028>42-056>058-240700-
SOUTHCENTRAL AND SOUTHEAST MONTANA

CITY           SKY/WX    TMP DP  RH WIND       PRES   REMARKS
BAKER          PTCLDY    50  29  44 W5        30.22S
BILLINGS       CLOUDY    62  37  39 CALM      30.29R
LIVINGSTON     PTCLDY    53  37  54 SE12      30.30S
MILES CITY     CLEAR     51  27  39 W7        30.23R
BIG TIMBER     CLOUDY    52  37  58 N7        30.35S
FORSYTH          N/A     57  28  33 CALM      30.25R
ROUNDUP          N/A     55  31  40 W7        30.18S
$$

REGIONAL REPORTS...DAKOTAS

CITY           SKY/WX    TMP DP  RH WIND       PRES   REMARKS
WILLISTON      CLOUDY    51  38  60 N9        30.17R
MINOT          CLOUDY    49  44  83 W14       30.08F
DICKINSON      CLEAR     44  31  60 W8        30.14R
BEACH            N/A     45  30  57 W8        30.21S
CROSBY         CLOUDY    50  37  62 NW10      30.15S
TIOGA          CLOUDY    50  37  62 NW13      30.15S
WATFORD CITY     N/A     48  39  71 N9        30.14R
BISMARCK       MOCLDY    50  39  66 SW5       30.10F
GRAND FORKS    CLOUDY    55  42  61 W10       29.97S
FARGO          CLEAR     50  39  66 W8        30.00S
BUFFALO SD       N/A     50  30  46 NW8       30.16R
RAPID CITY     CLEAR     45  29  53 NW8       30.24S
$$

REGIONAL REPORTS...WYOMING/IDAHO/WASHINGTON

CITY           SKY/WX    TMP DP  RH WIND       PRES   REMARKS
GILLETTE       CLOUDY    44  35  70 SW5       30.30R
SHERIDAN       CLEAR     47  37  68 S6        30.30S
BUFFALO WY     CLOUDY    54  35  48 NW6       30.34S
CODY           CLEAR     54  33  45 CALM      30.35R
YELLOWSTONE LA   N/A     38  28  67 CALM      30.40F
IDAHO FALLS    CLEAR     52  46  80 CALM      30.23R
SALMON         CLEAR     55  34  44 CALM      30.21R
BOISE          CLEAR     67  34  29 W5        30.12R
SPOKANE        CLEAR     65  41  41 SW5       30.20R
$$

REGIONAL REPORTS...ALBERTA

CITY           SKY/WX    TMP DP  RH WIND       PRES   REMARKS
EDMONTON       MOCLDY    52  45  76 SW5       30.23S
CALGARY        MOCLDY    55  43  62 SW5       30.30F
LETHBRIDGE     MOCLDY    50  43  76 SW3       30.28R
MEDICINE HAT   PTCLDY    54  43  66 NW2       30.24R
WATERTON GATE    N/A     41  37  87 CALM        N/A
MILK RIVER       N/A     46  45  93 NW5         N/A
$$

REGIONAL REPORTS...SASKATCHEWAN

CITY           SKY/WX    TMP DP  RH WIND       PRES   REMARKS
SWIFT CURRENT  MOCLDY    48  39  71 E3        30.21R
REGINA         PTCLDY    41  37  87 NW9       30.18R
SASKATOON      CLEAR     45  39  81 E7        30.23R
CYPRESS HILLS    N/A     46  36  66 NW2         N/A
VAL MARIE        N/A     45  36  70 N2          N/A
ROCKGLEN         N/A     43  36  75 NE1         N/A
ASSINIBOIA       N/A     48  43  81 W6          N/A
$$




USA.gov is the U.S. government's official web portal to all federal, state and local government web resources and services.